Flag for India Weather past 2 weeks in Hoshiarpur, Punjab, India

Now
93 °F

Scattered clouds.


Feels Like: 93 °F
Forecast: 74 / 106 °F
Wind: 12 mph from West

Location: Amritsar Airport

Current Time: May 28, 2015 at 10:43:39 AM

Latest Report: May 28, 2015 at 9:30 AM


Visibility: 2 mi

Pressure: 29.65 "Hg

Humidity: 32%

Dew point: 59 °F

Location of HoshiarpurLocation

Historic Weather in Hoshiarpur — Graph

°F

Hoshiarpur temperature yesterday

Maximum temperature yesterday: 106 °F (at 2:30 PM)
Minimum temperature yesterday: 77 °F (at 5:00 AM)
Average temperature yesterday: 93 °F

Past Weeks' High & Low Weather Summary

 TemperatureHumidityPressure
High109 °F (May 23, 2:30 PM)88% (May 14, 3:00 AM)29.89 "Hg (May 14, 3:00 AM)
Low70 °F (May 14, 9:00 PM)7% (May 27, 4:00 PM)29.42 "Hg (May 23, 4:00 PM)
Average89 °F39%29.62 "Hg
* Reported May 13 9:30 AM — May 28 9:30 AM, Hoshiarpur, Weather by CustomWeather, © 2015

Note: Actual official high and low records may vary slightly from our data, if they occured in-between our weather recording intervals... More about our weather records

Advertising

Hoshiarpur weather history for previous 24 hours

 ConditionsComfort  
Time TempWeatherWind HumidityBarometerVisibility
9:30 AM
Thu, May 28
93 °FScattered clouds.12 mph32%29.65 "Hg2 mi
9:00 AM91 °FScattered clouds.9 mph34%29.65 "Hg2 mi
8:30 AM90 °FScattered clouds.9 mph31%29.65 "Hg2 mi
8:00 AM88 °FScattered clouds.10 mph33%29.65 "Hg2 mi
7:30 AM86 °FScattered clouds.8 mph33%29.65 "Hg2 mi
7:00 AM82 °FScattered clouds.7 mph37%29.62 "Hg2 mi
6:30 AM82 °FBroken clouds.7 mph35%29.62 "Hg2 mi
6:00 AM81 °FBroken clouds.8 mph39%29.62 "Hg2 mi
5:30 AM79 °FPassing clouds.1 mph45%29.59 "Hg2 mi
5:00 AM79 °FPassing clouds.1 mph45%29.59 "Hg2 mi
4:30 AM81 °FPassing clouds.1 mph39%29.56 "Hg2 mi
4:00 AM81 °FPassing clouds.No wind37%29.56 "Hg2 mi
3:00 AM81 °FPassing clouds.5 mph37%29.56 "Hg2 mi
2:30 AM79 °FPassing clouds.No wind39%29.59 "Hg2 mi
2:00 AM81 °FPassing clouds.2 mph37%29.59 "Hg2 mi
1:30 AM82 °FPassing clouds.1 mph32%29.56 "Hg2 mi
1:00 AM86 °FPassing clouds.3 mph27%29.56 "Hg2 mi
12:30 AM82 °FPassing clouds.1 mph32%29.59 "Hg2 mi
12:00 AM84 °FPassing clouds.No wind33%29.59 "Hg2 mi
11:30 PM
Wed, May 27
86 °FPassing clouds.No wind29%29.59 "Hg2 mi
11:00 PM84 °FPassing clouds.No wind31%29.62 "Hg2 mi
10:30 PM86 °FPassing clouds.No wind31%29.62 "Hg2 mi
10:00 PM88 °FPassing clouds.No wind27%29.62 "Hg2 mi
9:30 PM88 °FPassing clouds.No wind27%29.62 "Hg2 mi
9:00 PM91 °FPassing clouds.6 mph21%29.62 "Hg2 mi
8:30 PM91 °FPassing clouds.No wind17%29.59 "Hg2 mi
8:00 PM95 °FPassing clouds.No wind15%29.59 "Hg3 mi
7:30 PM99 °FPassing clouds.No wind14%29.59 "Hg3 mi
7:00 PM100 °FPassing clouds.1 mph12%29.59 "Hg4 mi
6:30 PM104 °FScattered clouds.No wind9%29.59 "Hg4 mi
6:00 PM104 °FScattered clouds.1 mph8%29.59 "Hg4 mi
5:30 PM104 °FPassing clouds.1 mph9%29.59 "Hg4 mi
5:00 PM106 °FClear.5 mph8%29.59 "Hg4 mi
4:30 PM106 °FClear.3 mph7%29.59 "Hg4 mi
4:00 PM106 °FClear.7 mph7%29.62 "Hg4 mi
3:30 PM106 °FClear.3 mph9%29.62 "Hg4 mi
3:00 PM106 °FClear.2 mph10%29.62 "Hg4 mi
2:30 PM106 °FClear.5 mph9%29.65 "Hg4 mi
2:00 PM104 °FClear.6 mph11%29.65 "Hg4 mi
1:30 PM104 °FClear.2 mph11%29.65 "Hg4 mi
1:00 PM104 °FClear.3 mph12%29.68 "Hg4 mi
12:30 PM102 °FPassing clouds.3 mph12%29.68 "Hg3 mi
12:00 PM102 °FPassing clouds.2 mph12%29.68 "Hg3 mi
11:30 AM100 °FPassing clouds.No wind12%29.68 "Hg3 mi
11:00 AM99 °FPassing clouds.No wind14%29.71 "Hg3 mi
10:30 AM97 °FDuststorm.No wind16%29.71 "Hg3 mi
10:00 AM95 °FSunny.6 mph18%29.68 "Hg3 mi
Weather by CustomWeather, © 2015

See weather overviewHow to use our weather pages